526  
ASUS43 KEAX 141410  
RWREAX  
 
WEATHER ROUNDUP FOR EASTERN KANSAS AND NORTHWEST MISSOURI  
NATIONAL WEATHER SERVICE KANSAS CITY/PLEASANT HILL MO  
900 AM CDT TUE AUG 14 2018  
 
KSZ040-057-103>105-MOZ028-029-037-043-141500-   
..KANSAS CITY METROPOLITAN AREA
 
 
 
CITY SKY/WX TMP DP RH WIND PRES REMARKS
 
K.C. INTL HVY RAIN 71 71 100 S7 29.91F VSB 3/4  
K.C. DOWNTOWN CLOUDY 74 70 87 SE8 29.91S  
LEES SUMMIT CLOUDY 72 72 100 S10 29.93S  
OLATHE - IXD LGT RAIN 72 71 97 S7 29.92F  
OLATHE - OJC CLOUDY 71 71 100 SE9 29.92F  
LAWRENCE CLOUDY 73 72 96 SE7 29.91S  
 

 
 
MOZ001>008-011>017-020>025-030>033-038>040-044>046-053-054-141500-   
..NORTHERN AND CENTRAL MISSOURI
 
 
 
CITY SKY/WX TMP DP RH WIND PRES REMARKS
 
ST. JOSEPH LGT RAIN 73 73 100 SE5 29.91F  
WARRENSBURG DRIZZLE 72 68 88 SE8 29.93F  
WHITEMAN AFB CLOUDY 72 72 100 SE6 29.90F  
CLINTON CLOUDY 72 72 100 S7 29.95S  
SEDALIA LGT RAIN 73 71 93 SE8 29.97F  
WARSAW NOT AVBL  
CHILLICOTHE N/A 73 71 93 SE3 29.96S  
KIRKSVILLE CLOUDY 76 68 76 S8 29.98S  
 

 
 
MOZ041-047>049-056>058-063>065-088>090-097-141500-   
..EASTERN AND SOUTHERN MISSOURI
 
 
 
CITY SKY/WX TMP DP RH WIND PRES REMARKS
 
ST. LOUIS INTL CLOUDY 80 69 69 S8 30.01S  
SPIRIT OF STL CLOUDY 77 70 79 SE3 29.99S HAZE  
COLUMBIA CLOUDY 74 69 85 S10 29.99R  
JEFFERSON CITY LGT RAIN 75 70 84 CALM 29.98S  
ROLLA LGT RAIN 72 68 87 S8 30.01S  
OSAGE BEACH LGT RAIN 72 70 94 SE6 29.99F  
SPRINGFIELD CLOUDY 72 69 90 S13 29.98R  
BRANSON LGT RAIN 68 68 100 S12 30.01S VSB 3/4  
JOPLIN CLOUDY 73 70 90 S12 29.95S  
WEST PLAINS LGT RAIN 72 69 90 S7 30.05S  
 

 
 
IAZ060-094-KSZ022-034>040-054-083-096-NEZ052-066-093-141500-    
..KANSAS...SOUTHEAST NEBRASKA AND IOWA
 
 
 
CITY SKY/WX TMP DP RH WIND PRES REMARKS
 
TOPEKA LGT RAIN 73 72 96 SE7 29.89F  
MANHATTAN CLOUDY 71 70 96 CALM 29.89F FOG  
EMPORIA CLOUDY 72 70 93 SW8 29.91S  
CHANUTE CLOUDY 73 73 100 S10 29.92F  
WICHITA RAIN 70 70 100 CALM 29.91S FOG  
OMAHA CLOUDY 75 69 81 N5 29.93S  
LINCOLN LGT RAIN 72 69 90 N6 29.93F  
FALLS CITY LGT RAIN 71 71 100 S3 29.91S FOG  
LAMONI CLOUDY 73 68 84 S7 29.96R  
DES MOINES CLOUDY 74 64 71 SE3 29.94S  
 

 
 
 
 
CLICK HERE TO GO TO PREVIOUS BULLETINS.

The Nexlab MO Page
The Nexlab KS Page Main Text Page